Date,TemperatureHighF,TemperatureAvgF,TemperatureLowF,DewpointHighF,DewpointAvgF,DewpointLowF,HumidityHigh,HumidityAvg,HumidityLow,PressureMaxIn,PressureMinIn,WindSpeedMaxMPH,WindSpeedAvgMPH,GustSpeedMaxMPH,PrecipitationSumIn
2013-1-1,51.9,47.2,37.9,51.1,45.8,36.9,97,95,82,30.10,29.97,14,0,0,1.99
2013-1-2,37.9,33.9,32.0,36.9,32.8,30.9,97,96,95,30.25,30.07,8,0,0,0.00
2013-1-3,38.7,32.2,30.5,33.0,30.3,29.2,96,93,74,30.35,30.21,8,0,0,0.00
2013-1-4,43.6,35.7,27.0,29.3,25.9,23.9,90,68,50,30.50,30.41,9,0,0,0.00
2013-1-5,46.9,39.0,32.7,36.2,29.8,24.5,94,71,49,30.45,30.29,6,0,0,0.13
2013-1-6,46.3,40.1,34.4,39.6,36.4,30.7,96,87,74,30.35,30.22,13,1,0,0.01
2013-1-7,48.4,38.5,27.3,34.1,30.3,25.4,93,74,54,30.41,30.30,7,0,0,0.01
2013-1-8,56.8,47.3,39.3,45.4,39.2,31.5,86,74,63,30.37,30.26,11,2,0,0.00
2013-1-9,56.8,52.9,48.9,55.9,51.4,45.3,97,95,86,30.39,30.29,12,2,0,0.60
2013-1-10,63.9,59.3,55.3,60.8,57.8,53.6,97,95,89,30.36,30.02,19,3,0,0.02
2013-1-11,64.9,63.2,61.1,63.9,61.7,59.9,100,95,88,30.12,30.03,17,1,0,0.07
2013-1-12,68.8,65.2,63.1,65.7,63.1,58.4,98,93,85,30.07,29.91,13,1,0,0.05
2013-1-13,67.2,59.2,38.9,64.9,57.5,37.8,97,94,85,30.11,29.88,16,1,0,1.08
2013-1-14,38.8,34.8,31.5,37.8,33.9,30.5,97,96,96,30.28,30.10,16,0,0,1.69
2013-1-15,43.6,36.0,33.1,43.1,35.3,32.3,100,97,97,30.20,29.99,16,0,0,1.41
2013-1-16,37.4,36.1,35.2,36.9,35.5,34.4,98,98,97,30.13,29.99,9,0,0,0.20
2013-1-17,37.2,34.9,31.3,36.4,33.9,30.5,98,96,91,30.43,29.92,18,2,0,0.26
2013-1-18,46.6,37.2,28.7,36.0,30.0,21.8,96,77,42,30.62,30.43,5,0,0,0.06
2013-1-19,51.3,43.7,37.8,35.1,31.8,29.1,76,63,50,30.45,30.24,11,1,0,0.00
2013-1-20,56.9,48.4,42.5,42.1,37.7,34.9,76,67,53,30.26,30.15,10,0,0,0.00
2013-1-21,44.7,38.0,29.4,34.0,24.6,17.3,83,60,41,30.29,30.12,14,1,0,0.00
2013-1-22,37.8,31.4,24.0,21.5,17.9,13.9,70,58,45,30.43,30.27,10,0,0,0.00
2013-1-23,53.4,43.1,32.8,38.8,31.3,22.2,75,63,50,30.42,30.22,14,0,0,0.00
2013-1-24,46.4,40.0,33.2,40.0,27.2,18.9,79,61,43,30.39,30.22,13,1,0,0.00
2013-1-25,49.2,43.2,36.4,47.5,34.6,18.2,96,74,44,30.27,30.11,19,2,0,0.14
2013-1-26,50.7,40.3,31.9,37.1,33.5,30.5,96,78,49,30.34,30.24,8,0,0,0.00
2013-1-27,49.6,45.2,41.4,40.8,36.8,32.4,86,73,63,30.39,30.29,13,2,0,0.01
2013-1-28,62.6,53.4,45.2,54.5,47.3,36.6,91,80,69,30.34,30.18,16,2,0,0.00
2013-1-29,66.5,60.6,54.0,63.2,58.6,51.7,98,93,88,30.18,29.74,16,2,0,0.00
2013-1-30,67.6,52.6,35.5,64.8,49.8,27.0,96,90,70,29.94,29.55,27,3,0,1.94
2013-1-31,46.9,37.8,29.2,29.9,27.3,24.5,86,67,47,30.20,29.93,19,3,0,0.00
2013-2-1,42.2,29.7,22.6,34.0,18.2,12.9,80,62,46,30.47,30.20,17,1,0,0.00
2013-2-2,41.8,34.5,27.9,37.6,26.6,14.8,96,74,51,30.39,30.16,12,1,0,0.19
2013-2-3,52.2,41.7,33.8,36.8,32.0,27.8,96,71,45,30.20,30.09,21,2,0,0.00
2013-2-4,50.8,42.1,33.9,35.0,31.1,28.0,82,66,45,30.15,29.97,7,0,0,0.00
2013-2-5,61.4,50.8,44.4,50.1,44.1,35.0,92,78,56,30.07,29.96,9,0,0,0.02
2013-2-6,64.1,52.9,43.3,47.9,40.9,35.9,95,66,39,30.20,30.06,6,0,0,0.00
2013-2-7,55.7,50.7,47.0,47.9,44.0,37.0,94,79,52,30.11,29.92,16,2,0,0.01
2013-2-8,47.8,43.1,32.9,46.7,40.4,29.7,97,90,79,30.28,29.90,14,1,0,0.44
2013-2-9,59.0,43.7,29.7,36.9,32.2,27.6,94,67,38,30.34,30.19,9,1,0,0.01
2013-2-10,57.3,51.4,47.9,56.2,44.5,34.5,96,79,57,30.20,29.90,20,4,0,0.63
2013-2-11,58.1,51.8,44.4,57.3,47.1,37.7,97,84,68,30.19,29.96,12,0,0,0.05
2013-2-12,48.4,43.5,39.6,40.6,37.3,33.6,95,80,57,30.16,29.77,13,1,0,0.27
2013-2-13,45.0,41.3,36.7,44.2,39.2,33.8,97,92,85,30.05,29.71,20,2,0,0.04
2013-2-14,57.3,44.1,33.3,41.1,36.9,31.3,95,77,49,30.13,30.04,11,0,0,0.01
2013-2-15,54.6,46.8,42.6,42.1,38.4,36.1,81,73,56,30.14,30.06,14,1,0,0.00
2013-2-16,37.5,32.2,26.7,27.2,19.8,14.2,76,61,45,30.25,30.09,19,2,0,0.00
2013-2-17,46.8,34.8,23.5,23.1,18.2,14.1,72,52,36,30.36,30.25,13,0,0,0.00
2013-2-18,42.9,39.1,37.7,32.2,23.9,19.8,67,55,45,30.29,30.23,10,2,0,0.00
2013-2-25,48.9,46.4,44.7,43.6,42.4,41.1,94,86,75,29.74,29.50,19,8,0,0.17
2013-2-26,47.1,42.8,37.3,44.6,39.4,34.2,96,88,70,29.82,29.46,22,4,0,0.25
2013-2-27,54.4,43.4,37.6,38.9,34.9,31.7,85,73,52,29.96,29.82,22,2,0,0.00
2013-2-28,39.6,35.9,34.3,34.9,29.0,26.2,86,76,67,30.10,29.90,17,2,0,0.00
2013-3-1,36.5,33.7,31.1,31.3,29.8,27.3,95,85,75,30.11,30.05,12,1,0,0.00
2013-3-2,32.8,30.6,28.4,30.5,28.6,25.0,96,92,86,30.18,30.05,14,2,0,0.01
2013-3-3,41.4,32.4,25.0,25.5,21.6,18.1,89,66,45,30.21,30.13,14,2,0,0.03
2013-3-4,59.0,46.1,33.2,42.6,28.6,17.7,70,51,38,30.19,29.91,16,1,0,0.00
2013-3-5,58.2,47.7,33.3,55.3,43.9,23.8,94,87,68,30.05,29.68,27,4,0,0.43
2013-3-6,39.9,34.3,30.6,31.3,26.2,21.3,83,72,65,30.31,30.05,21,3,0,0.01
2013-3-7,50.2,36.9,26.4,36.1,29.7,23.8,92,76,54,30.38,30.29,11,0,0,0.00
2013-3-8,61.7,45.3,28.4,35.0,29.4,24.4,93,59,33,30.40,30.24,6,0,0,0.00
2013-3-9,65.3,53.7,44.7,40.6,33.9,26.5,53,47,37,30.26,30.07,14,2,0,0.00
2013-3-10,71.0,61.0,51.5,50.2,42.4,35.1,61,51,42,30.11,29.88,19,3,0,0.00
2013-3-11,62.6,46.8,36.9,51.1,42.6,31.8,96,87,62,29.98,29.80,20,3,0,1.42
2013-3-12,52.1,45.0,35.0,37.5,33.6,30.1,83,65,52,30.18,29.97,15,2,0,0.00
2013-3-13,47.4,40.2,34.5,30.9,26.8,21.9,76,59,42,30.39,30.22,21,3,0,0.00
2013-3-14,51.7,37.1,26.5,25.5,22.3,18.2,84,57,30,30.46,30.27,8,0,0,0.00
2013-3-15,73.0,55.7,44.3,47.5,37.4,23.9,60,50,39,30.27,29.95,19,2,0,0.00
2013-3-16,75.2,71.4,61.8,51.7,48.9,44.0,53,45,41,29.96,29.86,20,3,0,0.00
2013-3-17,69.0,61.9,54.6,54.8,51.6,48.5,87,70,54,29.97,29.84,15,1,0,0.00
2013-3-18,64.7,58.3,50.2,61.1,55.3,47.1,94,90,82,29.93,29.73,23,2,0,0.52
2013-3-19,50.2,47.5,45.5,47.0,44.4,42.8,91,89,87,30.01,29.93,15,2,0,0.00
2013-3-20,54.6,46.3,39.0,32.5,26.6,18.4,60,47,33,30.18,30.02,22,3,0,0.00
2013-3-21,45.8,36.6,25.5,28.8,21.1,15.4,78,55,35,30.10,30.00,13,1,0,0.00
2013-3-22,45.0,41.7,36.8,39.0,31.9,22.4,84,68,51,30.06,29.98,13,1,0,0.04
2013-3-23,50.5,46.3,42.4,48.6,44.8,38.9,97,95,85,30.00,29.67,16,2,0,1.01
2013-3-24,56.7,48.3,38.3,53.5,44.3,30.1,97,86,68,29.77,29.49,32,4,0,0.72
2013-3-25,37.3,33.3,31.2,26.9,25.0,23.1,80,72,59,30.18,29.87,22,5,0,0.00
2013-3-26,37.5,33.1,29.2,28.3,26.5,25.1,85,76,66,30.39,30.17,16,3,0,0.00
2013-3-27,50.6,40.8,30.8,33.1,27.9,23.8,80,61,46,30.44,30.32,14,1,0,0.00
2013-3-28,61.2,52.1,38.4,37.5,32.8,27.9,68,49,36,30.39,30.29,12,1,0,0.00
2013-3-29,65.6,56.6,47.5,42.3,38.1,32.4,59,50,38,30.31,30.15,13,1,0,0.00
2013-3-30,68.9,55.0,48.0,53.9,47.3,37.6,96,77,55,30.18,29.97,10,0,0,0.90
2013-3-31,60.5,56.0,53.9,58.2,54.9,53.1,97,96,90,29.97,29.87,9,0,0,0.35
2013-4-1,60.2,52.0,47.3,54.7,46.6,40.1,97,83,60,30.10,29.90,6,0,0,0.00
2013-4-2,55.8,48.8,44.4,41.4,34.1,28.9,77,58,39,30.23,30.08,7,0,0,0.00
2013-4-3,49.9,44.3,40.6,40.9,33.3,26.0,93,68,42,30.21,30.12,12,1,0,0.26
2013-4-4,44.1,42.7,40.9,43.0,41.5,39.8,96,96,94,30.09,29.97,17,3,0,0.46
2013-4-5,64.8,54.1,43.8,48.6,42.6,37.3,97,69,42,30.13,30.05,12,0,0,0.02
2013-4-6,71.3,60.9,49.1,44.2,40.2,36.1,61,48,36,30.17,30.03,11,1,0,0.00
2013-4-7,70.8,62.6,54.7,53.6,48.4,42.3,69,60,51,30.13,29.99,10,1,0,0.00
2013-4-8,60.7,59.5,59.0,54.8,52.8,51.2,86,78,71,30.00,29.98,7,1,0,0.00
2013-4-9,81.0,70.5,61.0,63.8,58.5,55.3,82,67,52,30.04,29.98,12,1,0,0.00
2013-4-10,84.4,71.7,63.0,63.1,59.1,56.6,81,66,46,30.05,29.82,12,1,0,0.00
2013-4-11,73.8,65.3,59.5,65.7,60.1,57.7,97,84,70,29.84,29.53,24,1,0,0.89
2013-4-12,63.6,59.8,55.4,45.6,42.0,39.5,60,52,45,29.95,29.91,15,3,0,0.00
2013-4-13,62.7,56.0,49.3,45.3,42.7,40.9,73,62,52,30.03,29.99,4,0,0,0.00
2013-4-14,60.9,57.1,54.8,53.9,49.8,40.4,92,78,49,30.00,29.83,17,1,0,0.02
2013-4-15,55.7,55.5,55.2,53.7,53.4,53.0,93,93,92,29.92,29.89,6,0,0,0.00
2013-4-16,77.0,67.6,62.7,68.1,62.9,59.4,91,85,72,30.16,30.04,13,2,0,0.00
2013-4-17,86.5,75.8,66.9,71.2,66.5,63.3,90,74,53,30.16,29.99,10,0,0,0.00
2013-4-18,75.8,67.7,63.3,64.8,62.5,59.3,90,84,69,29.97,29.91,15,1,0,0.00
2013-4-19,71.0,48.2,40.8,65.5,43.3,33.8,96,84,63,30.16,29.65,19,3,0,2.05
2013-4-20,62.4,49.6,36.3,41.6,36.4,32.3,86,63,38,30.30,30.16,12,0,0,0.00
2013-4-21,67.6,55.8,43.5,46.7,40.0,33.6,77,56,38,30.35,30.22,10,1,0,0.00
2013-4-22,71.2,60.8,50.9,52.9,47.4,41.9,74,62,45,30.27,30.10,13,1,0,0.00
2013-4-23,74.8,63.8,52.5,58.3,51.0,42.4,78,64,50,30.17,30.01,12,1,0,0.00
2013-4-24,64.1,55.4,44.0,59.0,51.8,41.1,96,88,72,30.25,29.95,16,1,0,0.29
2013-4-25,66.3,51.8,39.7,45.1,39.7,35.1,92,66,37,30.39,30.23,14,0,0,0.00
2013-4-26,74.3,59.0,47.0,50.9,42.9,34.8,85,57,32,30.40,30.21,17,1,0,0.03
2013-4-27,73.5,62.8,53.0,62.3,56.4,48.8,93,80,64,30.29,29.99,14,1,0,0.06
2013-4-28,65.0,60.6,55.7,64.0,59.2,54.6,97,95,88,30.02,29.89,19,0,0,0.70
2013-4-29,72.6,62.1,54.0,61.1,57.0,53.2,98,84,61,30.04,29.93,6,0,0,0.01
2013-4-30,79.8,67.8,57.0,62.0,56.9,53.3,88,70,47,30.03,29.93,6,0,0,0.00
2013-5-1,71.1,65.8,62.0,62.0,59.1,54.4,91,79,68,30.12,30.00,15,1,0,0.00
2013-5-2,66.7,62.3,57.7,60.9,57.4,53.5,90,84,77,30.14,30.04,12,2,0,0.00
2013-5-3,71.5,61.6,45.0,60.2,56.3,43.3,95,83,65,30.04,29.82,19,3,0,0.74
2013-5-4,50.0,44.0,39.0,48.4,42.5,38.0,97,94,85,29.99,29.86,9,1,0,2.29
2013-5-5,55.7,47.9,43.3,50.4,46.2,42.2,97,94,79,29.92,29.82,13,1,0,0.91
2013-5-6,53.2,49.5,46.8,52.6,48.8,46.0,98,97,96,29.94,29.80,15,1,0,1.76
2013-5-7,68.6,56.4,44.8,56.0,50.9,43.8,98,83,50,30.02,29.91,11,0,0,0.01
2013-5-8,76.1,64.8,54.5,61.6,57.0,52.5,95,77,54,30.09,29.99,14,1,0,0.00
2013-5-9,81.5,71.2,61.5,65.2,60.0,56.0,85,69,51,30.12,30.00,12,0,0,0.00
2013-5-10,74.0,65.3,58.8,65.1,60.2,57.1,95,84,71,30.04,29.91,13,0,0,0.28
2013-5-11,72.6,65.2,56.6,65.0,60.3,51.3,96,85,71,30.02,29.91,14,1,0,0.01
2013-5-12,65.3,57.7,50.5,52.1,42.5,36.1,89,59,40,30.17,30.01,12,1,0,0.01
2013-5-13,68.3,57.7,44.0,48.4,42.1,35.9,84,57,41,30.29,30.15,14,1,0,0.00
2013-5-14,82.4,69.3,56.1,63.2,54.8,46.1,75,61,47,30.22,30.07,13,1,0,0.00
2013-5-15,85.5,73.5,64.4,62.4,57.0,53.0,70,57,39,30.15,30.00,12,1,0,0.00
2013-5-16,83.3,72.8,66.1,67.3,59.9,55.9,81,65,45,30.04,29.95,11,0,0,0.00
2013-5-17,70.8,67.5,64.6,67.7,63.9,59.3,98,89,73,30.04,29.94,10,0,0,0.98
2013-5-18,79.3,71.5,65.0,73.4,68.8,64.1,99,92,78,30.03,29.95,11,0,0,0.01
2013-5-19,83.0,73.5,67.0,74.9,69.3,60.5,97,87,73,30.04,29.94,10,1,0,0.00
2013-5-20,85.3,72.8,63.1,73.2,67.1,60.6,95,83,59,30.06,29.95,9,0,0,0.00
2013-5-21,88.7,78.3,69.3,74.4,69.4,65.9,94,75,55,29.99,29.82,10,0,0,0.00
2013-5-22,79.6,72.4,64.5,70.1,66.6,62.3,95,83,69,29.92,29.83,11,0,0,0.14
2013-5-23,80.3,71.1,63.4,68.0,62.7,57.0,96,77,52,30.05,29.90,16,2,0,0.01
2013-5-24,73.7,63.8,55.3,57.4,53.4,47.6,91,71,45,30.26,30.04,13,0,0,0.00
2013-5-25,78.2,65.2,54.2,56.0,50.0,46.1,80,60,35,30.32,30.18,12,0,0,0.00
2013-5-26,85.0,72.4,59.6,63.1,53.8,42.1,74,53,33,30.24,30.12,8,0,0,0.00
2013-5-27,85.7,74.9,65.3,68.6,61.7,54.0,77,64,52,30.17,30.04,9,0,0,0.00
2013-5-28,85.8,75.8,66.3,68.6,63.1,58.1,77,66,51,30.12,30.03,10,0,0,0.00
2013-5-29,86.1,76.3,67.5,71.3,64.8,58.9,79,68,55,30.14,30.02,10,1,0,0.00
2013-5-30,82.3,75.7,69.5,72.7,67.6,63.3,84,76,66,30.13,30.02,12,1,0,0.00
2013-5-31,84.3,76.5,70.0,72.4,68.2,65.6,88,76,62,30.10,29.97,12,1,0,0.00
2013-6-1,86.1,75.0,68.4,75.4,69.2,65.1,96,83,66,30.02,29.90,14,0,0,0.51
2013-6-2,79.3,73.0,68.2,70.7,68.1,64.6,97,85,65,29.95,29.87,13,0,0,0.01
2013-6-3,80.5,71.8,64.0,69.6,65.8,62.8,97,83,58,29.97,29.88,13,0,0,0.00
2013-6-5,81.3,72.6,66.7,69.7,67.5,65.5,96,85,66,29.95,29.84,12,1,0,0.30
2013-6-6,82.8,77.7,70.4,73.7,71.0,68.5,96,80,68,29.85,29.77,10,1,0,0.01
2013-6-7,74.4,69.4,64.9,70.6,67.4,63.1,97,93,84,29.88,29.71,9,0,0,0.39
2013-6-8,82.7,78.1,64.5,68.8,66.3,62.7,96,68,52,30.01,29.87,8,0,0,0.01
2013-6-9,77.9,71.6,69.4,72.7,68.8,65.6,96,91,81,30.04,29.88,9,0,0,0.13
2013-6-10,86.5,75.1,65.3,72.5,69.0,64.4,98,83,57,29.98,29.89,10,1,0,0.72
2013-6-11,89.8,81.7,72.0,77.6,73.0,68.5,92,76,62,30.02,29.95,11,1,0,0.00
2013-6-12,92.6,84.5,74.1,78.8,74.4,71.4,92,73,52,30.06,29.94,10,1,0,0.24
2013-6-13,88.8,79.1,70.6,78.1,73.1,65.5,93,82,68,29.94,29.77,20,1,0,0.07
2013-6-14,84.0,73.8,64.3,66.5,63.2,59.1,95,72,47,30.02,29.87,12,0,0,0.00
2013-6-15,89.5,76.7,65.4,70.6,65.0,58.3,83,68,50,30.08,29.99,7,0,0,0.00
2013-6-16,90.3,77.0,70.0,76.7,68.8,62.5,95,77,60,30.08,29.95,12,0,0,0.15
2013-6-17,86.8,73.7,67.7,77.6,70.7,66.5,96,91,67,29.99,29.89,12,0,0,0.37
2013-6-18,79.1,72.6,68.1,74.5,69.5,65.7,98,90,74,29.95,29.84,12,0,0,1.40
2013-6-19,87.8,76.1,65.6,73.4,67.9,63.8,96,77,53,30.05,29.93,5,0,0,0.00
2013-6-20,86.7,77.1,66.5,73.8,68.9,62.8,96,77,57,30.16,30.04,15,0,0,0.27
2013-6-21,82.3,72.0,65.7,72.6,67.2,63.9,95,86,66,30.21,30.12,9,0,0,0.00
2013-6-22,86.2,77.6,69.5,71.5,67.1,62.3,88,71,54,30.20,30.05,7,0,0,0.00
2013-6-23,86.7,77.7,69.2,75.2,68.6,62.8,88,74,61,30.15,30.05,7,0,0,0.00
2013-6-24,87.5,76.4,71.0,76.1,71.8,68.0,97,87,61,30.17,30.05,11,0,0,1.09
2013-6-25,89.2,77.8,70.8,76.6,72.6,69.7,97,85,60,30.12,29.99,10,0,0,0.01
2013-6-26,89.5,80.8,73.4,77.5,73.2,69.3,92,78,63,30.05,29.88,11,-38,0,0.00
2013-6-27,90.3,70.2,42.9,79.6,50.3,-99.9,97,71,58,29.95,29.82,15,-104,0,13.76
2013-6-28,84.7,74.4,40.5,73.7,57.2,-99.9,92,74,63,29.86,29.70,17,-20,0,13.14
2013-6-29,85.8,77.2,70.4,72.4,67.2,60.8,95,73,47,29.73,29.65,14,0,0,0.00
2013-6-30,86.1,75.3,66.0,69.8,64.7,60.6,88,71,49,29.79,29.69,8,0,0,0.00
2013-7-1,84.0,73.1,64.1,70.3,65.9,62.4,97,80,59,29.89,29.74,11,0,0,0.00
2013-7-2,82.6,73.0,64.8,70.5,65.8,63.1,98,79,57,30.03,29.87,14,0,0,0.00
2013-7-3,81.1,72.3,67.8,73.0,68.7,63.2,97,89,74,30.09,30.01,11,0,0,1.10
2013-7-4,73.3,40.5,68.7,72.7,-1.8,-99.9,98,57,97,30.07,30.00,11,-418,0,0.78
2013-7-5,73.9,27.2,-90.0,70.9,-30.5,-99.9,98,40,91,30.26,30.04,9,-566,0,0.36
2013-7-6,72.1,70.1,68.3,71.1,69.3,67.7,99,97,96,30.11,30.04,7,0,0,0.55
2013-7-7,84.3,71.4,69.4,76.5,65.8,-99.9,99,90,74,30.14,30.06,7,-35,0,0.22
2013-7-8,86.5,77.5,70.2,78.1,73.4,69.0,98,88,71,30.18,30.07,6,0,0,0.00
2013-7-9,89.9,79.6,73.4,81.0,74.8,71.5,98,86,65,30.16,30.03,6,0,0,0.03
2013-7-10,90.7,80.0,68.5,80.4,74.8,67.0,95,85,66,30.06,29.90,11,0,0,1.05
2013-7-11,85.9,75.3,68.3,79.0,72.6,66.9,98,92,76,29.98,29.85,6,0,0,0.15
2013-7-12,86.0,75.8,67.9,75.7,69.9,62.8,98,83,62,29.95,29.88,7,0,0,0.01
2013-7-13,83.6,73.5,62.6,74.9,68.2,60.4,94,84,68,30.03,29.92,10,0,0,0.00
2013-7-14,83.8,75.6,70.3,75.3,71.8,68.6,96,88,73,30.12,29.99,10,0,0,0.03
2013-7-15,84.7,77.0,71.5,75.0,72.0,69.8,95,85,67,30.24,30.10,13,1,0,0.00
2013-7-16,87.0,78.2,71.1,76.6,72.3,69.5,96,83,66,30.29,30.21,8,0,0,0.00
2013-7-17,92.8,82.0,73.5,79.9,74.4,69.7,93,79,58,30.27,30.13,5,0,0,0.00
2013-7-18,87.3,79.0,71.9,77.0,71.9,67.6,95,80,65,30.16,30.03,6,0,0,0.02
2013-7-19,90.1,80.7,73.8,78.0,72.7,68.5,90,77,60,30.10,29.93,7,0,0,0.00
2013-7-20,89.7,79.4,72.6,77.5,73.0,69.6,93,81,62,30.01,29.88,10,0,0,0.00
2013-7-21,88.1,75.2,69.8,78.3,72.4,68.9,97,91,67,30.00,29.91,12,0,0,0.23
2013-7-22,78.0,72.7,68.6,74.9,70.8,67.4,98,94,85,29.96,29.88,11,1,0,0.01
2013-7-23,75.5,71.9,70.1,73.8,70.9,69.2,98,97,92,29.95,29.83,15,0,0,1.47
2013-7-24,83.5,74.4,68.3,76.5,71.6,67.7,98,91,73,29.92,29.83,6,0,0,0.01
2013-7-26,81.2,69.9,64.7,72.1,65.7,62.3,94,87,72,30.05,30.00,6,0,0,0.00
2013-7-27,84.1,76.0,69.0,73.6,69.8,65.9,92,82,63,29.95,29.89,9,0,0,0.01
2013-7-28,83.3,74.6,67.8,73.1,68.2,63.6,96,81,65,30.05,29.91,7,0,0,0.00
2013-7-29,80.5,71.8,64.9,68.8,63.9,60.1,89,77,63,30.16,30.04,4,0,0,0.00
2013-7-30,89.6,84.0,76.7,76.2,73.4,70.2,83,71,58,30.14,30.04,5,0,0,0.00
2013-7-31,79.5,72.7,69.6,75.9,71.0,67.8,97,94,88,30.07,29.92,12,0,0,1.00
2013-8-1,87.2,77.4,70.1,77.3,71.5,67.2,98,83,65,29.99,29.92,12,0,0,0.00
2013-8-2,86.7,74.8,66.9,72.3,67.1,64.5,95,79,54,30.01,29.93,3,0,0,0.00
2013-8-3,81.0,75.8,70.7,75.9,71.1,64.9,94,86,79,30.04,29.95,5,0,0,0.10
2013-8-4,84.0,74.9,71.5,75.8,72.3,70.3,97,92,74,30.05,29.99,6,0,0,0.00
2013-8-5,81.0,72.3,67.5,71.9,67.0,63.8,91,84,71,30.04,29.94,6,0,0,0.00
2013-8-6,81.7,75.1,71.3,77.2,72.0,66.5,98,90,79,30.01,29.90,6,0,0,0.66
2013-8-7,90.3,76.1,71.0,81.0,73.0,69.3,98,91,69,29.98,29.89,10,0,0,0.59
2013-8-8,90.0,76.5,70.2,81.9,73.0,67.5,97,89,71,29.99,29.90,11,0,0,0.37
2013-8-9,90.5,79.1,72.4,79.8,74.6,71.4,97,87,67,30.03,29.94,10,0,0,0.00
2013-8-10,79.4,74.3,71.3,77.6,72.8,70.3,98,95,89,30.09,30.00,10,0,0,1.54
2013-8-11,89.5,78.5,70.9,79.5,73.9,69.7,97,87,65,30.13,30.02,10,0,0,0.00
2013-8-12,89.8,79.4,73.6,79.0,74.5,71.1,94,86,65,30.08,29.92,9,0,0,0.03
2013-8-13,85.3,77.1,71.8,76.9,72.9,70.4,98,87,70,29.95,29.85,11,1,0,0.01
2013-8-14,76.5,70.4,67.6,71.0,68.1,66.4,96,92,82,29.98,29.88,5,0,0,0.00
2013-8-15,73.1,67.7,62.3,69.0,63.7,58.4,90,87,83,30.02,29.95,11,0,0,0.00
2013-8-16,67.6,66.4,65.9,64.6,63.7,62.6,93,91,89,30.07,30.01,7,0,0,0.00
2013-8-17,68.5,65.6,63.7,65.4,63.7,62.4,97,94,89,30.09,30.00,9,0,0,0.01
2013-8-18,74.7,69.2,64.9,70.4,67.1,63.7,98,93,83,30.13,30.03,7,0,0,0.05
2013-8-19,80.2,71.4,67.3,76.0,69.8,66.4,98,95,84,30.09,29.97,15,0,0,0.92
2013-8-20,84.5,74.8,69.1,77.8,72.5,68.2,100,93,78,30.10,30.01,9,0,0,0.04
2013-8-21,85.7,75.8,72.1,77.9,72.7,69.2,98,91,72,30.15,30.04,7,0,0,0.00
2013-8-22,86.2,76.3,71.2,79.0,73.2,69.7,98,90,74,30.11,29.99,7,0,0,0.18
2013-8-23,89.1,78.2,71.3,79.1,73.4,70.4,98,86,65,30.05,29.94,5,0,0,0.01
2013-8-24,86.0,77.5,70.3,76.7,71.9,67.3,92,83,69,30.15,29.99,9,0,0,0.00
2013-8-25,83.0,74.7,68.3,72.6,67.7,63.8,92,79,64,30.28,30.14,12,1,0,0.00
2013-8-26,83.3,73.9,66.2,69.6,64.3,59.5,83,73,57,30.27,30.10,5,0,0,0.00
2013-8-27,86.4,75.2,65.2,72.9,66.8,61.1,92,76,55,30.12,29.99,7,0,0,0.00
2013-8-28,89.0,78.0,69.6,76.7,70.4,65.3,91,78,60,30.04,29.95,6,0,0,0.00
2013-8-29,90.1,79.9,71.0,77.3,72.5,68.2,94,79,60,30.02,29.90,7,0,0,0.00
2013-8-30,90.9,81.2,72.9,78.9,74.4,70.5,95,80,60,29.96,29.84,9,0,0,0.00
2013-8-31,93.1,82.0,74.0,79.7,73.8,70.3,94,78,52,29.89,29.79,9,0,0,0.00
2013-9-1,88.9,79.5,74.3,76.1,72.4,67.4,94,80,60,29.88,29.78,13,0,0,0.02
2013-9-2,82.8,74.5,67.9,74.8,71.0,66.8,98,89,72,29.93,29.80,10,0,0,2.19
2013-9-3,86.3,76.9,70.2,76.0,70.4,64.5,98,82,57,29.95,29.83,10,0,0,0.00
2013-9-4,85.7,75.3,67.4,72.1,66.9,63.5,91,76,56,30.06,29.91,6,0,0,0.00
2013-9-5,86.2,74.6,64.3,72.3,66.7,62.2,95,77,54,30.11,30.02,6,0,0,0.00
2013-9-6,87.7,76.1,67.4,73.5,67.7,63.2,88,76,57,30.09,29.98,6,0,0,0.00
2013-9-7,88.3,78.2,70.2,75.5,70.4,65.4,93,78,59,30.06,29.94,6,0,0,0.00
2013-9-8,90.1,78.5,70.4,76.2,70.4,66.3,89,77,59,29.98,29.88,7,0,0,0.00
2013-9-9,90.7,79.2,71.9,78.0,71.9,68.0,91,79,61,30.03,29.91,6,0,0,0.00
2013-9-10,87.7,79.6,73.7,77.4,72.0,69.6,89,78,62,30.13,30.00,7,0,0,0.00
2013-9-11,87.7,78.5,71.4,75.5,70.1,65.2,89,76,60,30.16,30.02,4,0,0,0.00
2013-9-12,89.7,78.1,69.3,74.8,69.3,64.8,94,75,56,30.03,29.85,9,0,0,0.04
2013-9-13,82.7,72.3,60.2,71.1,63.6,54.0,97,76,48,29.91,29.82,12,0,0,0.00
2013-9-14,76.7,64.7,52.5,61.9,56.4,50.4,96,76,52,30.02,29.90,6,0,0,0.00
2013-9-15,82.5,70.9,62.5,68.2,62.9,58.3,90,77,55,30.07,30.01,7,0,0,0.00
2013-9-16,86.0,73.9,65.2,70.8,62.8,56.8,88,70,48,30.10,30.01,5,0,0,0.00
2013-9-17,84.2,73.6,66.2,72.3,66.3,61.1,87,78,62,30.11,29.99,11,0,0,0.00
2013-9-18,81.5,71.1,64.7,71.0,65.2,60.4,88,82,68,30.12,30.01,12,1,0,0.00
2013-9-19,83.2,73.1,65.8,71.0,66.1,62.5,90,79,62,30.12,29.97,10,0,0,0.00
2013-9-20,85.8,75.5,67.0,71.6,66.7,62.0,92,75,57,30.00,29.76,9,0,0,0.06
2013-9-21,70.9,66.7,58.5,70.3,64.9,55.6,98,94,85,29.80,29.65,14,0,0,2.65
2013-9-22,77.8,63.9,53.1,62.7,57.0,51.7,97,80,53,29.87,29.77,9,0,0,0.01
2013-9-23,78.7,68.2,57.9,67.7,60.7,54.4,89,78,60,29.94,29.83,7,0,0,0.00
2013-9-24,70.3,66.5,64.6,67.5,64.7,61.8,97,94,85,29.91,29.77,11,0,0,0.00
2013-9-25,74.5,68.3,64.7,70.3,66.5,63.6,98,94,85,29.82,29.73,10,0,0,0.01
2013-9-26,80.2,69.4,62.2,69.4,64.8,61.3,99,86,66,29.96,29.80,5,0,0,0.00
2013-9-27,79.5,70.7,63.0,68.1,62.7,57.3,96,77,56,30.08,29.94,7,0,0,0.00
2013-9-28,76.7,67.6,59.4,63.7,59.6,57.1,94,76,56,30.15,30.02,9,0,0,0.00
2013-9-29,73.1,64.8,58.4,64.2,58.4,54.2,87,80,68,30.07,29.95,11,0,0,0.00
2013-9-30,75.4,66.0,62.0,65.7,60.4,57.6,90,82,67,30.03,29.92,7,0,0,0.01
2013-10-1,83.4,70.8,62.7,69.8,64.8,60.1,95,82,59,30.08,29.96,6,0,0,0.00
2013-10-2,81.5,72.9,66.6,71.1,65.9,62.6,90,79,64,30.09,29.96,3,0,0,0.00
2013-10-3,82.7,73.4,67.0,70.2,65.7,63.1,89,78,55,30.06,29.96,6,0,0,0.00
2013-10-4,85.5,74.2,67.1,72.8,67.3,62.4,85,79,63,30.08,29.97,5,0,0,0.00
2013-10-5,86.1,75.5,68.4,73.4,68.2,65.0,90,79,62,30.04,29.88,8,0,0,0.00
2013-10-6,80.2,70.1,55.1,71.9,65.4,52.4,94,86,72,29.89,29.73,13,0,0,0.00
2013-10-7,70.6,59.1,51.8,54.1,51.4,48.4,96,77,53,30.03,29.83,11,0,0,0.00
2013-10-8,75.7,61.6,49.0,63.0,54.8,46.7,93,79,60,30.07,29.97,9,0,0,0.00
2013-10-9,73.8,65.5,59.0,62.7,56.9,49.7,85,74,63,30.13,30.02,12,0,0,0.00
2013-10-10,80.0,68.5,61.6,65.9,60.4,56.1,87,76,58,30.11,29.97,7,0,0,0.00
2013-10-11,81.2,68.4,60.2,64.9,59.1,54.6,87,73,51,30.04,29.94,6,0,0,0.00
2013-10-12,80.3,69.3,59.6,65.2,59.8,54.1,86,72,55,30.07,29.96,12,0,0,0.00
2013-10-13,80.0,69.1,62.6,64.7,60.2,57.2,90,74,56,30.16,30.05,9,0,0,0.00
2013-10-14,77.0,67.5,58.1,67.0,61.3,56.1,94,81,64,30.17,30.03,7,0,0,0.00
2013-10-15,72.5,65.5,61.4,63.5,60.7,59.1,94,85,70,30.08,29.94,10,0,0,0.00
2013-10-16,69.2,64.0,60.7,65.0,61.9,58.6,98,93,85,29.99,29.85,7,0,0,0.56
2013-10-17,65.0,60.4,51.8,64.3,59.6,50.6,98,97,96,29.97,29.81,10,0,0,0.26
2013-10-18,65.8,55.3,49.5,56.1,51.3,48.7,98,87,65,30.06,29.93,7,0,0,0.01
2013-10-19,67.2,56.3,45.8,58.0,51.3,43.1,91,84,68,30.01,29.88,16,1,0,0.00
2013-10-20,64.3,50.5,40.7,47.5,42.1,36.1,96,75,45,30.09,30.00,5,0,0,0.01
2013-10-21,69.4,58.0,47.9,55.1,46.4,39.4,78,66,46,30.09,29.97,6,0,0,0.00
2013-10-22,65.7,57.9,51.7,56.9,52.2,48.3,90,82,70,30.00,29.86,7,0,0,0.00
2013-10-23,57.6,49.2,43.2,48.6,41.2,36.2,93,75,49,30.12,29.85,17,1,0,0.00
2013-10-24,60.5,48.9,41.0,45.7,40.6,35.6,85,74,56,30.30,30.09,9,0,0,0.00
2013-10-25,53.7,41.2,31.7,35.9,30.7,27.4,85,67,42,30.47,30.30,9,0,0,0.00
2013-10-26,61.0,49.0,37.9,41.8,35.7,28.7,80,61,42,30.35,30.14,9,0,0,0.00
2013-10-27,69.5,58.8,52.6,55.5,50.5,41.3,89,74,58,30.14,30.06,7,0,0,0.02
2013-10-28,64.8,59.0,55.3,59.5,55.6,51.6,94,89,81,30.23,30.08,6,0,0,0.03
2013-10-29,73.4,63.6,56.9,63.8,58.8,55.2,95,85,69,30.27,30.14,11,0,0,0.01
2013-10-30,76.9,67.9,63.1,63.1,58.8,57.1,86,73,54,30.23,30.04,10,0,0,0.00
2013-10-31,72.1,65.8,61.8,66.3,61.2,55.6,96,85,75,30.05,29.64,14,1,0,0.30
2013-11-1,68.9,60.4,54.3,64.1,53.6,46.3,97,80,52,29.84,29.67,16,1,0,0.01
2013-11-2,64.4,54.0,46.8,49.5,44.2,40.0,90,71,42,30.12,29.81,16,1,0,0.00
2013-11-3,61.1,48.6,39.5,42.7,39.0,35.3,94,71,42,30.29,30.11,9,0,0,0.00
2013-11-4,64.4,53.8,46.7,44.3,40.7,38.7,78,62,44,30.37,30.23,15,1,0,0.00
2013-11-5,60.6,53.7,47.9,45.8,41.5,37.8,69,63,57,30.38,30.22,16,2,0,0.00
2013-11-6,71.5,61.9,51.7,61.8,56.2,42.5,95,82,66,30.24,30.02,14,1,0,0.36
2013-11-7,60.4,48.0,40.1,59.0,40.9,30.5,96,78,53,30.30,30.01,16,0,0,0.18
2013-11-8,58.3,45.4,34.8,38.2,32.2,27.8,85,61,40,30.39,30.21,8,0,0,0.00
2013-11-9,60.1,51.3,44.5,42.5,37.7,28.5,71,60,47,30.32,30.20,9,0,0,0.00
2013-11-10,68.0,54.3,46.4,49.0,42.3,36.6,82,65,44,30.31,30.22,10,0,0,0.00
2013-11-11,67.8,54.1,45.2,37.3,29.9,15.5,71,41,24,30.28,30.14,7,0,0,0.00
2013-11-12,57.1,42.6,28.8,42.8,27.8,16.5,83,57,30,30.52,30.14,15,1,0,0.00
2013-11-13,47.2,34.5,24.3,22.7,19.0,17.0,79,55,33,30.66,30.44,7,0,0,0.00
2013-11-14,57.1,44.3,33.9,28.2,23.0,19.5,65,44,28,30.47,30.21,7,0,0,0.00
2013-11-15,52.7,49.7,47.5,49.8,42.6,27.1,97,78,46,30.23,30.05,11,1,0,0.41
2013-11-16,65.0,57.9,50.6,60.1,55.7,49.8,98,93,84,30.13,29.98,14,1,0,0.00
2013-11-17,68.6,64.2,60.1,68.0,63.1,56.6,99,96,88,30.01,29.78,17,1,0,0.22
2013-11-18,64.7,56.4,44.3,56.5,43.3,34.6,90,63,40,30.14,29.89,13,1,0,0.03
2013-11-19,51.0,43.3,37.1,34.6,30.6,28.5,74,61,45,30.20,30.11,9,0,0,0.00
2013-11-20,57.3,48.8,37.6,40.3,35.4,29.1,73,60,48,30.24,30.11,13,2,0,0.00
2013-11-21,59.4,55.1,49.3,54.5,48.1,39.9,88,77,66,30.29,30.20,13,1,0,0.00
2013-11-22,62.1,56.3,48.5,59.9,54.5,47.4,97,94,87,30.27,30.14,11,0,0,0.07
2013-11-23,48.5,42.1,28.2,47.5,37.4,21.0,97,84,62,30.41,30.18,14,0,0,0.01
2013-11-24,38.4,28.8,21.5,21.2,17.5,14.6,82,64,44,30.56,30.40,12,0,0,0.00
2013-11-25,40.4,35.3,28.3,35.3,24.0,15.2,96,65,44,30.43,30.09,15,2,0,0.41
2013-11-26,44.8,39.2,32.4,44.3,38.4,31.6,98,97,96,30.11,29.78,17,1,0,1.55
2013-11-27,32.8,29.2,22.1,31.5,22.1,14.2,97,75,58,30.38,29.88,21,2,0,0.00
2013-11-28,41.1,29.8,18.4,20.8,17.1,13.7,84,61,39,30.52,30.36,5,0,0,0.00
2013-11-29,50.5,40.8,30.8,29.8,23.8,16.3,64,51,40,30.58,30.45,10,0,0,0.00
2013-11-30,52.7,45.3,39.1,32.2,30.5,28.4,69,56,42,30.50,30.25,15,1,0,0.00
2013-12-1,56.4,47.8,39.0,42.5,36.9,30.9,76,66,54,30.25,29.96,10,0,0,0.01
2013-12-2,54.7,50.6,47.0,53.0,48.8,42.1,97,94,76,29.97,29.74,6,0,0,0.29
2013-12-3,59.0,31.2,-66.0,58.5,22.4,-99.9,99,80,83,29.89,29.71,11,1,0,0.01
2013-12-4,69.7,47.4,-50.7,64.7,39.5,-99.9,100,82,80,30.00,29.85,14,1,0,0.00
2013-12-5,74.5,64.9,45.5,68.2,62.5,44.4,97,92,78,29.97,29.81,13,0,0,0.02
2013-12-6,45.4,38.7,33.3,44.3,37.9,32.5,100,97,96,30.27,29.89,15,0,0,0.94
2013-12-7,33.6,32.0,30.4,32.7,31.2,29.7,97,97,96,30.44,30.25,10,0,0,0.00
2013-12-8,45.4,-10.1,-79.7,44.9,-28.9,-99.9,99,51,97,30.28,30.13,11,0,0,1.26
2013-12-9,-52.2,-68.1,-72.8,-99.9,-99.9,-99.9,0,0,100,30.54,30.22,10,0,0,0.15
2013-12-10,36.9,-22.3,-84.3,34.0,-35.2,-99.9,100,44,80,30.77,30.44,15,1,0,0.10
2013-12-11,46.9,35.7,27.1,33.0,27.7,24.2,94,74,47,30.60,30.41,10,0,0,0.01
2013-12-12,37.9,30.2,21.4,26.7,19.9,14.0,89,67,45,30.59,30.43,9,0,0,0.00
2013-12-13,47.4,39.6,30.8,31.6,25.4,17.4,63,57,48,30.43,30.10,10,0,0,0.00
2013-12-14,52.1,46.2,36.0,51.6,43.6,28.8,100,91,56,30.11,29.80,17,2,0,0.45
2013-12-15,36.0,32.5,29.4,34.4,30.4,27.4,95,92,88,30.28,29.97,18,1,0,0.00
2013-12-16,52.5,40.1,27.9,35.8,31.8,26.1,94,74,50,30.31,30.18,14,1,0,0.00
2013-12-17,59.3,48.2,39.8,41.3,35.8,29.6,69,62,49,30.28,30.10,16,1,0,0.02
2013-12-18,49.9,41.4,30.8,29.6,26.1,22.6,77,56,36,30.38,30.23,11,0,0,0.00
2013-12-19,58.4,50.5,43.5,38.3,32.7,27.3,57,50,43,30.29,30.10,14,1,0,0.00
2013-12-20,65.2,58.5,51.2,58.5,51.1,33.6,92,77,51,30.11,29.96,14,2,0,0.00
2013-12-21,70.2,65.4,60.3,67.1,63.4,58.1,97,93,88,29.96,29.71,16,2,0,0.14
2013-12-22,68.5,56.1,53.3,66.4,54.8,52.4,98,95,87,30.02,29.70,31,1,0,1.44
2013-12-23,49.4,34.7,28.8,48.6,31.6,25.6,97,88,83,30.42,30.06,14,1,0,0.10
2013-12-24,33.2,27.2,22.5,25.6,21.3,16.7,91,79,63,30.55,30.40,13,0,0,0.00
2013-12-25,44.5,34.1,22.6,28.4,23.8,17.1,81,66,49,30.46,30.34,12,0,0,0.00
2013-12-26,46.2,38.4,32.9,34.7,28.7,23.0,72,68,59,30.42,30.32,10,0,0,0.00
2013-12-27,50.2,41.4,33.7,30.9,26.2,23.7,71,56,36,30.48,30.36,5,0,0,0.00
2013-12-28,44.9,41.2,38.3,39.3,34.5,29.3,97,79,57,30.37,29.91,17,1,0,1.02
2013-12-29,48.6,42.8,39.7,45.0,40.7,38.9,98,93,79,30.10,29.90,11,0,0,0.17
2013-12-30,44.8,36.2,31.9,41.4,33.8,30.5,97,91,86,30.29,30.09,7,0,0,0.02
2013-12-31,39.8,33.7,29.0,30.5,28.7,27.2,95,82,65,30.50,30.29,8,0,0,0.00
2014-1-1,48.4,42.5,31.6,41.0,35.0,26.9,89,75,62,30.36,30.04,14,1,0,0.00
2014-1-2,47.5,35.8,20.0,46.7,32.5,12.8,97,88,71,30.32,29.87,19,3,0,0.26